| time (UTC) | temp F | wind direction | speed MPH | gust MPH | rain 1hr in | rain 24hr in | rain mn in | humidity % | barometer mb |
| 20260505215103 | 64 | 171 | 8.0 | 12.0 | 0.00 | 0.00 | 0.00 | 39 | 1010.6 |
| 20260505214602 | 64 | 215 | 8.0 | 18.0 | 0.00 | 0.00 | 0.00 | 40 | 1010.6 |
| 20260505214105 | 64 | 174 | 9.0 | 19.0 | 0.00 | 0.00 | 0.00 | 39 | 1010.8 |
| 20260505213824 | 64 | 180 | 9.0 | 19.0 | 0.00 | 0.00 | 0.00 | 38 | 1011.0 |
| 20260505213103 | 65 | 163 | 8.0 | 15.0 | 0.00 | 0.00 | 0.00 | 37 | 1011.2 |
| 20260505212603 | 64 | 190 | 8.0 | 15.0 | 0.00 | 0.00 | 0.00 | 39 | 1011.1 |
| 20260505212329 | 63 | 218 | 8.0 | 14.0 | 0.00 | 0.00 | 0.00 | 40 | 1010.8 |
| 20260505211603 | 63 | 205 | 7.0 | 14.0 | 0.00 | 0.00 | 0.00 | 39 | 1010.9 |
| 20260505211103 | 63 | 161 | 7.0 | 16.0 | 0.00 | 0.00 | 0.00 | 38 | 1011.0 |
| 20260505210604 | 64 | 153 | 7.0 | 16.0 | 0.00 | 0.00 | 0.00 | 37 | 1011.4 |
| 20260505210103 | 64 | 234 | 5.0 | 14.0 | 0.00 | 0.00 | 0.00 | 37 | 1011.4 |
| 20260505205603 | 64 | 220 | 6.0 | 13.0 | 0.00 | 0.00 | 0.00 | 37 | 1011.5 |
| 20260505205103 | 64 | 184 | 7.0 | 13.0 | 0.00 | 0.00 | 0.00 | 37 | 1011.5 |
| 20260505204552 | 64 | 180 | 7.0 | 12.0 | 0.00 | 0.00 | 0.00 | 39 | 1011.6 |
| 20260505204049 | 63 | 197 | 7.0 | 16.0 | 0.00 | 0.00 | 0.00 | 38 | 1011.6 |
| 20260505203540 | 64 | 198 | 5.0 | 16.0 | 0.00 | 0.00 | 0.00 | 39 | 1011.9 |
| 20260505203041 | 63 | 190 | 5.0 | 13.0 | 0.00 | 0.00 | 0.00 | 41 | 1011.7 |
| 20260505202749 | 62 | 246 | 7.0 | 14.0 | 0.00 | 0.00 | 0.00 | 42 | 1011.5 |
| 20260505202024 | 62 | 152 | 7.0 | 15.0 | 0.00 | 0.00 | 0.00 | 41 | 1011.5 |
| 20260505201750 | 62 | 182 | 8.0 | 15.0 | 0.00 | 0.00 | 0.00 | 42 | 1011.1 |
| 20260505201019 | 61 | 198 | 9.0 | 16.0 | 0.00 | 0.00 | 0.00 | 43 | 1011.0 |
| 20260505200747 | 61 | 161 | 10.0 | 16.0 | 0.00 | 0.00 | 0.00 | 41 | 1011.1 |
| 20260505200019 | 62 | 163 | 10.0 | 18.0 | 0.00 | 0.00 | 0.00 | 41 | 1011.5 |
| 20260505195518 | 62 | 199 | 9.0 | 18.0 | 0.00 | 0.00 | 0.00 | 40 | 1011.6 |
| 20260505195016 | 63 | 168 | 9.0 | 18.0 | 0.00 | 0.00 | 0.00 | 40 | 1011.9 |
| 20260505194516 | 62 | 194 | 9.0 | 19.0 | 0.00 | 0.00 | 0.00 | 40 | 1011.6 |
| 20260505194013 | 62 | 176 | 10.0 | 19.0 | 0.00 | 0.00 | 0.00 | 40 | 1011.6 |
| 20260505193734 | 62 | 168 | 9.0 | 18.0 | 0.00 | 0.00 | 0.00 | 40 | 1011.6 |
| 20260505193010 | 62 | 182 | 8.0 | 16.0 | 0.00 | 0.00 | 0.00 | 42 | 1011.7 |
| 20260505192505 | 62 | 206 | 8.0 | 19.0 | 0.00 | 0.00 | 0.00 | 42 | 1011.4 |
| 20260505192005 | 61 | 137 | 9.0 | 19.0 | 0.00 | 0.00 | 0.00 | 44 | 1011.0 |
| 20260505191507 | 60 | 184 | 9.0 | 21.0 | 0.00 | 0.00 | 0.00 | 46 | 1010.8 |
| 20260505191229 | 60 | 168 | 7.0 | 21.0 | 0.00 | 0.00 | 0.00 | 44 | 1010.8 |
| 20260505190506 | 60 | 213 | 7.0 | 15.0 | 0.00 | 0.00 | 0.00 | 42 | 1010.8 |
| 20260505190004 | 60 | 178 | 9.0 | 20.0 | 0.00 | 0.00 | 0.00 | 42 | 1010.9 |
| 20260505185503 | 60 | 181 | 9.0 | 20.0 | 0.00 | 0.00 | 0.00 | 43 | 1010.8 |
| 20260505185003 | 60 | 186 | 7.0 | 16.0 | 0.00 | 0.00 | 0.00 | 45 | 1010.5 |
| 20260505184503 | 59 | 272 | 6.0 | 16.0 | 0.00 | 0.00 | 0.00 | 45 | 1010.3 |
| 20260505183957 | 59 | 227 | 6.0 | 16.0 | 0.00 | 0.00 | 0.00 | 44 | 1010.4 |
| 20260505183458 | 59 | 237 | 6.0 | 13.0 | 0.00 | 0.00 | 0.00 | 41 | 1010.3 |
| 20260505182957 | 59 | 211 | 8.0 | 14.0 | 0.00 | 0.00 | 0.00 | 40 | 1010.2 |
| 20260505182457 | 60 | 240 | 6.0 | 14.0 | 0.00 | 0.00 | 0.00 | 39 | 1010.4 |
| 20260505181958 | 60 | 231 | 5.0 | 15.0 | 0.00 | 0.00 | 0.00 | 39 | 1010.4 |
| 20260505181458 | 60 | 191 | 7.0 | 15.0 | 0.00 | 0.00 | 0.00 | 38 | 1010.5 |
| 20260505180955 | 61 | 192 | 7.0 | 12.0 | 0.00 | 0.00 | 0.00 | 37 | 1011.0 |
| 20260505180455 | 61 | 224 | 6.0 | 12.0 | 0.00 | 0.00 | 0.00 | 37 | 1010.9 |
| 20260505180438 | 62 | 203 | 6.0 | 14.0 | 0.00 | 0.00 | 0.00 | 37 | 1010.9 |
| 20260505175454 | 62 | 232 | 5.0 | 14.0 | 0.00 | 0.00 | 0.00 | 35 | 1011.0 |
| 20260505175213 | 62 | 198 | 4.0 | 10.0 | 0.00 | 0.00 | 0.00 | 36 | 1011.0 |
| 20260505174454 | 61 | 163 | 4.0 | 11.0 | 0.00 | 0.00 | 0.00 | 36 | 1010.8 |
| 20260505173949 | 61 | 150 | 4.0 | 11.0 | 0.00 | 0.00 | 0.00 | 37 | 1010.8 |
| 20260505173709 | 61 | 232 | 4.0 | 11.0 | 0.00 | 0.00 | 0.00 | 37 | 1010.8 |
| 20260505172941 | 61 | 240 | 5.0 | 11.0 | 0.00 | 0.00 | 0.00 | 36 | 1010.9 |
| 20260505172440 | 61 | 221 | 4.0 | 9.0 | 0.00 | 0.00 | 0.00 | 37 | 1011.1 |
| 20260505171939 | 60 | 217 | 3.0 | 7.0 | 0.00 | 0.00 | 0.00 | 37 | 1010.9 |
| 20260505171437 | 60 | 229 | 4.0 | 8.0 | 0.00 | 0.00 | 0.00 | 36 | 1010.6 |
| 20260505170935 | 60 | 229 | 5.0 | 9.0 | 0.00 | 0.00 | 0.00 | 36 | 1011.0 |
| 20260505170431 | 61 | 191 | 4.0 | 10.0 | 0.00 | 0.00 | 0.00 | 37 | 1011.1 |
| 20260505165931 | 60 | 181 | 4.0 | 10.0 | 0.00 | 0.00 | 0.00 | 36 | 1010.8 |
| 20260505165653 | 60 | 243 | 5.0 | 10.0 | 0.00 | 0.00 | 0.00 | 37 | 1010.8 |
| 20260505164931 | 60 | 224 | 4.0 | 10.0 | 0.00 | 0.00 | 0.00 | 38 | 1010.6 |
| 20260505164431 | 59 | 246 | 3.0 | 9.0 | 0.00 | 0.00 | 0.00 | 39 | 1010.4 |
| 20260505164150 | 58 | 236 | 4.0 | 9.0 | 0.00 | 0.00 | 0.00 | 39 | 1010.4 |
| 20260505163432 | 58 | 221 | 4.0 | 8.0 | 0.00 | 0.00 | 0.00 | 39 | 1010.5 |
| 20260505163150 | 58 | 228 | 4.0 | 8.0 | 0.00 | 0.00 | 0.00 | 39 | 1010.4 |
| 20260505162431 | 58 | 243 | 4.0 | 8.0 | 0.00 | 0.00 | 0.00 | 39 | 1010.5 |
| 20260505161928 | 58 | 247 | 3.0 | 8.0 | 0.00 | 0.00 | 0.00 | 39 | 1010.3 |
| 20260505161417 | 58 | 227 | 2.0 | 8.0 | 0.00 | 0.00 | 0.00 | 39 | 1010.4 |
| 20260505160915 | 58 | 192 | 3.0 | 7.0 | 0.00 | 0.00 | 0.00 | 39 | 1010.3 |
| 20260505160626 | 57 | 184 | 3.0 | 7.0 | 0.00 | 0.00 | 0.00 | 39 | 1010.2 |
| 20260505160128 | 57 | 288 | 1.0 | 5.0 | 0.00 | 0.00 | 0.00 | 39 | 1010.2 |
| 20260505153126 | 57 | 0 | 1.0 | 6.0 | 0.00 | 0.00 | 0.00 | 42 | 1010.2 |
| 20260505152403 | 56 | 347 | 3.0 | 9.0 | 0.00 | 0.00 | 0.00 | 42 | 1009.9 |
| 20260505152121 | 56 | 344 | 5.0 | 9.0 | 0.00 | 0.00 | 0.00 | 44 | 1010.0 |
| 20260505151354 | 56 | 333 | 5.0 | 9.0 | 0.00 | 0.00 | 0.00 | 45 | 1009.8 |
| 20260505150854 | 55 | 313 | 4.0 | 9.0 | 0.00 | 0.00 | 0.00 | 45 | 1009.8 |
| 20260505150353 | 55 | 317 | 3.0 | 7.0 | 0.00 | 0.00 | 0.00 | 44 | 1009.8 |
| 20260505140331 | 54 | 276 | 5.0 | 9.0 | 0.00 | 0.00 | 0.00 | 48 | 1009.4 |
| 20260505130240 | 49 | 321 | 1.0 | 3.0 | 0.00 | 0.00 | 0.00 | 54 | 1007.6 |
| 20260505124732 | 46 | 321 | 0.0 | 1.0 | 0.00 | 0.00 | 0.00 | 54 | 1006.5 |
| 20260505124231 | 46 | 321 | 0.0 | 1.0 | 0.00 | 0.00 | 0.00 | 53 | 1006.4 |
| 20260505123718 | 46 | 321 | 0.0 | 2.0 | 0.00 | 0.00 | 0.00 | 52 | 1006.4 |
| 20260505123206 | 46 | 321 | 1.0 | 4.0 | 0.00 | 0.00 | 0.00 | 52 | 1006.5 |
| 20260505122704 | 47 | 321 | 2.0 | 4.0 | 0.00 | 0.00 | 0.00 | 52 | 1006.5 |
| 20260505122204 | 47 | 321 | 1.0 | 4.0 | 0.00 | 0.00 | 0.00 | 51 | 1006.7 |
| 20260505121704 | 47 | 321 | 1.0 | 4.0 | 0.00 | 0.00 | 0.00 | 51 | 1006.9 |
| 20260505121203 | 48 | 321 | 0.0 | 2.0 | 0.00 | 0.00 | 0.00 | 50 | 1006.9 |
| 20260505120703 | 48 | 321 | 0.0 | 2.0 | 0.00 | 0.00 | 0.00 | 50 | 1007.0 |
| 20260505120209 | 48 | 321 | 1.0 | 3.0 | 0.00 | 0.00 | 0.00 | 49 | 1007.0 |
| 20260505115913 | 49 | 321 | 1.0 | 3.0 | 0.00 | 0.00 | 0.00 | 49 | 1007.0 |
| 20260505115144 | 49 | 321 | 0.0 | 2.0 | 0.00 | 0.00 | 0.00 | 48 | 1006.9 |
| 20260505114643 | 49 | 321 | 0.0 | 0.0 | 0.00 | 0.00 | 0.00 | 48 | 1007.0 |
| 20260505114140 | 49 | 321 | 0.0 | 2.0 | 0.00 | 0.00 | 0.00 | 47 | 1007.2 |
| 20260505113631 | 49 | 321 | 0.0 | 2.0 | 0.00 | 0.00 | 0.00 | 47 | 1007.5 |
| 20260505113133 | 50 | 321 | 0.0 | 1.0 | 0.00 | 0.00 | 0.00 | 47 | 1007.7 |
| 20260505112632 | 50 | 321 | 0.0 | 1.0 | 0.00 | 0.00 | 0.00 | 46 | 1007.8 |
| 20260505112127 | 50 | 321 | 0.0 | 1.0 | 0.00 | 0.00 | 0.00 | 46 | 1008.0 |
| 20260505111626 | 50 | 321 | 0.0 | 2.0 | 0.00 | 0.00 | 0.00 | 46 | 1008.0 |
| 20260505111345 | 51 | 321 | 0.0 | 2.0 | 0.00 | 0.00 | 0.00 | 46 | 1008.1 |
| 20260505110627 | 51 | 321 | 0.0 | 1.0 | 0.00 | 0.00 | 0.00 | 45 | 1008.2 |
| 20260505110119 | 51 | 321 | 0.0 | 1.0 | 0.00 | 0.00 | 0.00 | 45 | 1008.2 |
| 20260505101603 | 52 | 321 | 0.0 | 1.0 | 0.00 | 0.00 | 0.00 | 42 | 1008.6 |
| 20260505101104 | 52 | 321 | 0.0 | 2.0 | 0.00 | 0.00 | 0.00 | 42 | 1008.6 |
| 20260505100603 | 52 | 321 | 0.0 | 3.0 | 0.00 | 0.00 | 0.00 | 41 | 1008.6 |
| 20260505095604 | 53 | 321 | 0.0 | 5.0 | 0.00 | 0.00 | 0.00 | 40 | 1008.7 |
| 20260505095059 | 53 | 317 | 0.0 | 4.0 | 0.00 | 0.00 | 0.00 | 39 | 1008.8 |
| 20260505094558 | 53 | 317 | 1.0 | 5.0 | 0.00 | 0.00 | 0.00 | 39 | 1008.8 |
| 20260505094053 | 53 | 317 | 2.0 | 6.0 | 0.00 | 0.00 | 0.00 | 39 | 1009.1 |
| 20260505093812 | 53 | 318 | 3.0 | 9.0 | 0.00 | 0.00 | 0.00 | 39 | 1008.7 |
| 20260505093044 | 53 | 319 | 3.0 | 9.0 | 0.00 | 0.00 | 0.00 | 38 | 1008.8 |
| 20260505092543 | 53 | 304 | 3.0 | 7.0 | 0.00 | 0.00 | 0.00 | 38 | 1008.9 |
| 20260505092033 | 53 | 298 | 3.0 | 6.0 | 0.00 | 0.00 | 0.00 | 37 | 1009.1 |
| 20260505091532 | 53 | 298 | 1.0 | 6.0 | 0.00 | 0.00 | 0.00 | 38 | 1008.9 |
| 20260505091032 | 54 | 298 | 1.0 | 4.0 | 0.00 | 0.00 | 0.00 | 38 | 1009.1 |
| 20260505090531 | 54 | 298 | 1.0 | 4.0 | 0.00 | 0.00 | 0.00 | 38 | 1009.2 |
| 20260505090031 | 54 | 298 | 2.0 | 7.0 | 0.00 | 0.00 | 0.00 | 38 | 1009.4 |
| 20260505085531 | 54 | 298 | 4.0 | 8.0 | 0.00 | 0.00 | 0.00 | 37 | 1009.4 |
| 20260505085259 | 55 | 293 | 4.0 | 9.0 | 0.00 | 0.00 | 0.00 | 37 | 1009.5 |
| 20260505084532 | 55 | 290 | 4.0 | 9.0 | 0.00 | 0.00 | 0.00 | 37 | 1009.8 |
| 20260505084032 | 55 | 286 | 3.0 | 9.0 | 0.00 | 0.00 | 0.00 | 38 | 1009.9 |
| 20260505083802 | 55 | 254 | 2.0 | 5.0 | 0.00 | 0.00 | 0.00 | 38 | 1010.0 |
| 20260505083026 | 55 | 254 | 2.0 | 6.0 | 0.00 | 0.00 | 0.00 | 38 | 1010.2 |
| 20260505082518 | 55 | 253 | 2.0 | 6.0 | 0.00 | 0.00 | 0.00 | 37 | 1010.2 |
| 20260505082015 | 55 | 250 | 3.0 | 8.0 | 0.00 | 0.00 | 0.00 | 37 | 1010.3 |
| 20260505081513 | 55 | 252 | 3.0 | 8.0 | 0.00 | 0.00 | 0.00 | 37 | 1010.3 |
| 20260505081011 | 54 | 254 | 2.0 | 6.0 | 0.00 | 0.00 | 0.00 | 37 | 1010.0 |
| 20260505080511 | 54 | 254 | 1.0 | 4.0 | 0.00 | 0.00 | 0.00 | 37 | 1009.9 |
| 20260505080006 | 54 | 254 | 1.0 | 5.0 | 0.00 | 0.00 | 0.00 | 36 | 1010.2 |
| 20260505075723 | 54 | 254 | 1.0 | 5.0 | 0.00 | 0.00 | 0.00 | 36 | 1009.8 |
| 20260505075004 | 54 | 254 | 1.0 | 4.0 | 0.00 | 0.00 | 0.00 | 36 | 1009.9 |
| 20260505074503 | 54 | 254 | 0.0 | 4.0 | 0.00 | 0.00 | 0.00 | 35 | 1009.8 |
| 20260505074221 | 54 | 254 | 0.0 | 4.0 | 0.00 | 0.00 | 0.00 | 36 | 1009.9 |
| 20260505073451 | 55 | 254 | 0.0 | 4.0 | 0.00 | 0.00 | 0.00 | 35 | 1010.2 |
| 20260505072949 | 55 | 254 | 0.0 | 1.0 | 0.00 | 0.00 | 0.00 | 35 | 1010.3 |
| 20260505072443 | 56 | 254 | 0.0 | 0.0 | 0.00 | 0.00 | 0.00 | 34 | 1010.4 |
| 20260505071931 | 56 | 254 | 1.0 | 5.0 | 0.00 | 0.00 | 0.00 | 33 | 1010.4 |
| 20260505071425 | 57 | 254 | 1.0 | 5.0 | 0.00 | 0.00 | 0.00 | 33 | 1010.6 |
| 20260505070919 | 57 | 254 | 1.0 | 4.0 | 0.00 | 0.00 | 0.00 | 32 | 1010.8 |
| 20260505070415 | 57 | 254 | 3.0 | 8.0 | 0.00 | 0.00 | 0.00 | 32 | 1011.0 |
| 20260505065909 | 58 | 254 | 4.0 | 9.0 | 0.00 | 0.00 | 0.00 | 32 | 1011.1 |
| 20260505065408 | 58 | 258 | 4.0 | 12.0 | 0.00 | 0.00 | 0.00 | 31 | 1011.2 |
| 20260505064903 | 58 | 302 | 6.0 | 12.0 | 0.00 | 0.00 | 0.00 | 31 | 1011.4 |
| 20260505064403 | 58 | 282 | 7.0 | 13.0 | 0.00 | 0.00 | 0.00 | 31 | 1011.2 |
| 20260505063903 | 58 | 293 | 8.0 | 15.0 | 0.00 | 0.00 | 0.00 | 30 | 1011.4 |
| 20260505063403 | 59 | 291 | 9.0 | 18.0 | 0.00 | 0.00 | 0.00 | 30 | 1011.4 |
| 20260505063126 | 59 | 272 | 9.0 | 18.0 | 0.00 | 0.00 | 0.00 | 30 | 1011.4 |
| 20260505062403 | 59 | 280 | 8.0 | 16.0 | 0.00 | 0.00 | 0.00 | 30 | 1011.2 |
| 20260505062128 | 59 | 292 | 8.0 | 16.0 | 0.00 | 0.00 | 0.00 | 30 | 1011.5 |
| 20260505061403 | 59 | 307 | 8.0 | 15.0 | 0.00 | 0.00 | 0.00 | 30 | 1011.5 |
| 20260505060903 | 59 | 304 | 7.0 | 15.0 | 0.00 | 0.00 | 0.00 | 30 | 1011.5 |
| 20260505060351 | 59 | 315 | 7.0 | 13.0 | 0.00 | 0.00 | 0.00 | 31 | 1011.6 |
| 20260505060202 | 60 | 285 | 8.0 | 13.0 | 0.00 | 0.00 | 0.00 | 31 | 1011.6 |
| 20260505060158 | 59 | 281 | 7.0 | 11.0 | 0.00 | 0.00 | 0.00 | 33 | 1011.7 |
| 20260505060153 | 59 | 284 | 7.0 | 11.0 | 0.00 | 0.00 | 0.00 | 33 | 1011.7 |
| 20260505055932 | 59 | 281 | 7.0 | 11.0 | 0.00 | 0.00 | 0.00 | 33 | 1011.5 |
| 20260505053818 | 59 | 283 | 6.0 | 11.0 | 0.00 | 0.00 | 0.00 | 33 | 1011.5 |
| 20260505053542 | 59 | 271 | 6.0 | 11.0 | 0.00 | 0.00 | 0.00 | 33 | 1011.4 |
| 20260505052818 | 59 | 274 | 6.0 | 11.0 | 0.00 | 0.00 | 0.00 | 34 | 1011.1 |
| 20260505052319 | 59 | 269 | 5.0 | 11.0 | 0.00 | 0.00 | 0.00 | 34 | 1011.1 |
| 20260505051818 | 59 | 252 | 4.0 | 8.0 | 0.00 | 0.00 | 0.00 | 35 | 1011.1 |
| 20260505051316 | 59 | 252 | 4.0 | 8.0 | 0.00 | 0.00 | 0.00 | 35 | 1011.1 |
| 20260505050817 | 59 | 246 | 3.0 | 7.0 | 0.00 | 0.00 | 0.00 | 35 | 1010.9 |
| 20260505050536 | 59 | 258 | 3.0 | 8.0 | 0.00 | 0.00 | 0.00 | 35 | 1011.0 |
| 20260505041303 | 59 | 281 | 2.0 | 7.0 | 0.00 | 0.00 | 0.00 | 34 | 1011.2 |
| 20260505041026 | 59 | 282 | 1.0 | 3.0 | 0.00 | 0.00 | 0.00 | 33 | 1011.0 |
| 20260505040302 | 59 | 282 | 0.0 | 5.0 | 0.00 | 0.00 | 0.00 | 34 | 1011.1 |
| 20260505035803 | 59 | 282 | 1.0 | 5.0 | 0.00 | 0.00 | 0.00 | 33 | 1011.4 |
| 20260505035304 | 59 | 285 | 0.0 | 2.0 | 0.00 | 0.00 | 0.00 | 33 | 1011.6 |
| 20260505035026 | 60 | 285 | 0.0 | 2.0 | 0.00 | 0.00 | 0.00 | 32 | 1011.7 |
| 20260505034303 | 60 | 285 | 0.0 | 2.0 | 0.00 | 0.00 | 0.00 | 32 | 1012.0 |
| 20260505034034 | 60 | 285 | 0.0 | 2.0 | 0.00 | 0.00 | 0.00 | 31 | 1012.0 |
| 20260505033306 | 61 | 285 | 1.0 | 3.0 | 0.00 | 0.00 | 0.00 | 31 | 1012.1 |
| 20260505032759 | 61 | 285 | 1.0 | 4.0 | 0.00 | 0.00 | 0.00 | 30 | 1012.1 |
| 20260505032250 | 61 | 285 | 1.0 | 4.0 | 0.00 | 0.00 | 0.00 | 30 | 1012.1 |
| 20260505031748 | 61 | 285 | 2.0 | 5.0 | 0.00 | 0.00 | 0.00 | 29 | 1012.3 |
| 20260505031232 | 62 | 285 | 2.0 | 7.0 | 0.00 | 0.00 | 0.00 | 29 | 1012.2 |
| 20260505030952 | 62 | 285 | 3.0 | 8.0 | 0.00 | 0.00 | 0.00 | 28 | 1012.2 |
| 20260505030220 | 62 | 284 | 4.0 | 9.0 | 0.00 | 0.00 | 0.00 | 28 | 1012.3 |
| 20260505025719 | 62 | 281 | 3.0 | 9.0 | 0.00 | 0.00 | 0.00 | 28 | 1012.2 |
| 20260505025204 | 62 | 284 | 3.0 | 8.0 | 0.00 | 0.00 | 0.00 | 27 | 1012.3 |
| 20260505024702 | 62 | 283 | 5.0 | 9.0 | 0.00 | 0.00 | 0.00 | 27 | 1012.3 |
| 20260505024200 | 63 | 280 | 6.0 | 11.0 | 0.00 | 0.00 | 0.00 | 26 | 1012.3 |
| 20260505023650 | 63 | 296 | 6.0 | 11.0 | 0.00 | 0.00 | 0.00 | 26 | 1012.3 |
| 20260505023148 | 63 | 283 | 5.0 | 9.0 | 0.00 | 0.00 | 0.00 | 26 | 1012.2 |
| 20260505022648 | 63 | 281 | 5.0 | 10.0 | 0.00 | 0.00 | 0.00 | 26 | 1012.3 |
| 20260505022147 | 63 | 283 | 5.0 | 10.0 | 0.00 | 0.00 | 0.00 | 26 | 1012.5 |
| 20260505021646 | 63 | 267 | 4.0 | 10.0 | 0.00 | 0.00 | 0.00 | 24 | 1012.5 |
| 20260505021145 | 64 | 281 | 6.0 | 14.0 | 0.00 | 0.00 | 0.00 | 24 | 1012.7 |
| 20260505020902 | 64 | 268 | 4.0 | 14.0 | 0.00 | 0.00 | 0.00 | 24 | 1012.6 |
| 20260505020139 | 64 | 284 | 2.0 | 9.0 | 0.00 | 0.00 | 0.00 | 24 | 1012.7 |
| 20260505015856 | 64 | 286 | 4.0 | 9.0 | 0.00 | 0.00 | 0.00 | 23 | 1012.8 |
| 20260505015401 | 64 | 296 | 6.0 | 10.0 | 0.00 | 0.00 | 0.00 | 23 | 1012.9 |
| 20260505014634 | 65 | 278 | 7.0 | 19.0 | 0.00 | 0.00 | 0.00 | 23 | 1012.8 |
| 20260505014353 | 65 | 265 | 7.0 | 19.0 | 0.00 | 0.00 | 0.00 | 22 | 1012.8 |
| 20260505013632 | 65 | 281 | 6.0 | 12.0 | 0.00 | 0.00 | 0.00 | 22 | 1012.8 |
| 20260505013132 | 65 | 293 | 6.0 | 13.0 | 0.00 | 0.00 | 0.00 | 21 | 1012.8 |
| 20260505012630 | 65 | 302 | 6.0 | 14.0 | 0.00 | 0.00 | 0.00 | 21 | 1012.8 |
| 20260505012121 | 66 | 237 | 6.0 | 14.0 | 0.00 | 0.00 | 0.00 | 21 | 1012.8 |
| 20260505011622 | 66 | 277 | 6.0 | 13.0 | 0.00 | 0.00 | 0.00 | 20 | 1013.1 |
| 20260505011350 | 66 | 279 | 7.0 | 13.0 | 0.00 | 0.00 | 0.00 | 20 | 1013.2 |
| 20260505010628 | 66 | 281 | 8.0 | 13.0 | 0.00 | 0.00 | 0.00 | 19 | 1013.1 |
| 20260505010127 | 67 | 290 | 8.0 | 13.0 | 0.00 | 0.00 | 0.00 | 19 | 1013.4 |
| 20260505005627 | 67 | 298 | 9.0 | 18.0 | 0.00 | 0.00 | 0.00 | 19 | 1013.3 |
| 20260505005125 | 67 | 292 | 8.0 | 18.0 | 0.00 | 0.00 | 0.00 | 19 | 1013.6 |
| 20260505004623 | 68 | 290 | 6.0 | 13.0 | 0.00 | 0.00 | 0.00 | 19 | 1013.7 |
| 20260505004113 | 68 | 292 | 7.0 | 18.0 | 0.00 | 0.00 | 0.00 | 19 | 1013.7 |
| 20260505004104 | 68 | 275 | 8.0 | 18.0 | 0.00 | 0.00 | 0.00 | 18 | 1013.9 |
| 20260505003118 | 68 | 287 | 8.0 | 15.0 | 0.00 | 0.00 | 0.00 | 18 | 1014.2 |
| 20260505002615 | 68 | 253 | 8.0 | 15.0 | 0.00 | 0.00 | 0.00 | 18 | 1014.2 |
| 20260505002112 | 69 | 250 | 7.0 | 14.0 | 0.00 | 0.00 | 0.00 | 18 | 1014.2 |
| 20260505001834 | 69 | 278 | 7.0 | 22.0 | 0.00 | 0.00 | 0.00 | 18 | 1014.2 |
| 20260505001329 | 69 | 241 | 9.0 | 22.0 | 0.00 | 0.00 | 0.00 | 18 | 1014.0 |
| 20260505000824 | 69 | 235 | 9.0 | 22.0 | 0.00 | 0.00 | 0.00 | 18 | 1014.3 |
| 20260505000104 | 69 | 245 | 9.0 | 18.0 | 0.00 | 0.00 | 0.00 | 17 | 1014.3 |
| 20260504235602 | 70 | 252 | 8.0 | 14.0 | 0.00 | 0.00 | 0.00 | 18 | 1014.6 |
| 20260504235103 | 70 | 266 | 7.0 | 14.0 | 0.00 | 0.00 | 0.00 | 18 | 1014.8 |
| 20260504234603 | 70 | 250 | 6.0 | 14.0 | 0.00 | 0.00 | 0.00 | 18 | 1014.6 |
| 20260504234103 | 70 | 236 | 6.0 | 13.0 | 0.00 | 0.00 | 0.00 | 17 | 1014.6 |
| 20260504233603 | 70 | 277 | 7.0 | 16.0 | 0.00 | 0.00 | 0.00 | 19 | 1014.9 |
| 20260504233103 | 70 | 277 | 8.0 | 16.0 | 0.00 | 0.00 | 0.00 | 18 | 1015.0 |
| 20260504232603 | 71 | 221 | 9.0 | 16.0 | 0.00 | 0.00 | 0.00 | 19 | 1015.0 |
| 20260504232103 | 71 | 301 | 9.0 | 19.0 | 0.00 | 0.00 | 0.00 | 18 | 1015.4 |
| 20260504231603 | 73 | 278 | 8.0 | 19.0 | 0.00 | 0.00 | 0.00 | 17 | 1016.0 |
| 20260504231102 | 73 | 306 | 8.0 | 18.0 | 0.00 | 0.00 | 0.00 | 19 | 1016.0 |
| 20260504230603 | 72 | 245 | 9.0 | 20.0 | 0.00 | 0.00 | 0.00 | 19 | 1015.9 |
| 20260504230319 | 71 | 268 | 11.0 | 23.0 | 0.00 | 0.00 | 0.00 | 19 | 1015.6 |
| 20260504225603 | 71 | 236 | 10.0 | 23.0 | 0.00 | 0.00 | 0.00 | 18 | 1015.5 |
| 20260504225102 | 71 | 205 | 7.0 | 15.0 | 0.00 | 0.00 | 0.00 | 19 | 1015.7 |
| 20260504224820 | 71 | 242 | 8.0 | 15.0 | 0.00 | 0.00 | 0.00 | 19 | 1015.6 |
| 20260504224055 | 71 | 272 | 10.0 | 16.0 | 0.00 | 0.00 | 0.00 | 19 | 1015.6 |
| 20260504223555 | 70 | 312 | 8.0 | 19.0 | 0.00 | 0.00 | 0.00 | 19 | 1015.4 |
| 20260504223056 | 70 | 313 | 8.0 | 19.0 | 0.00 | 0.00 | 0.00 | 19 | 1015.4 |
| 20260504222552 | 70 | 280 | 8.0 | 18.0 | 0.00 | 0.00 | 0.00 | 19 | 1015.6 |
| 20260504222053 | 69 | 266 | 9.0 | 18.0 | 0.00 | 0.00 | 0.00 | 19 | 1015.3 |
| 20260504221553 | 69 | 288 | 9.0 | 18.0 | 0.00 | 0.00 | 0.00 | 20 | 1015.3 |
| 20260504221053 | 69 | 281 | 9.0 | 16.0 | 0.00 | 0.00 | 0.00 | 19 | 1015.4 |
| 20260504220553 | 70 | 304 | 9.0 | 19.0 | 0.00 | 0.00 | 0.00 | 19 | 1015.6 |
| 20260504220259 | 70 | 288 | 7.0 | 18.0 | 0.00 | 0.00 | 0.00 | 18 | 1016.0 |
| 20260504220252 | 70 | 298 | 9.0 | 19.0 | 0.00 | 0.00 | 0.00 | 18 | 1015.9 |